Regional Weather Roundup
Issued by NWS

Home | Current Version | Previous Version | Text Only | Print | Product List | Glossary On
Versions: 1 2 3 4 5 6 7 8 9 10 11 12 13 14 15 16 17 18 19 20 21 22 23 24 25 26 27 28 29 30 31 32 33 34 35 36 37 38 39 40 41 42 43 44 45 46 47 48 49 50
000
ASCA42 TJSJ 250911
RWRPR
PUERTO RICO/U.S. VIRGIN ISLANDS HOURLY WEATHER ROUNDUP
NATIONAL WEATHER SERVICE SAN JUAN PR
500 AM AST FRI JUL 25 2014

PRZ001-004-251000-
PUERTO RICO

CITY           SKY/WX    TMP DP  RH WIND       PRES   REMARKS
SAN JUAN LMM   PTCLDY    81  73  78 E7        30.03R
PONCE          PTCLDY    79  72  78 NE6       29.98
CEIBA          PTCLDY    81  72  74 E7        30.05R
$$

PRZ006-007-251000-
U.S. VIRGIN ISLANDS

CITY           SKY/WX    TMP DP  RH WIND       PRES   REMARKS
CHARLOTTE AMA  CLOUDY    82  75  78 E14       30.03R
CHRISTIANSTED  CLEAR     81  72  74 NE9       30.03R
$$

HOURLY WEATHER ROUNDUP FOR THE NEWS MEDIA

CITY           SKY/WX    TMP DP  RH WIND       PRES   REMARKS
MIAMI          CLEAR     78  74  87 CALM      30.05R
ORLANDO        CLEAR     79  75  87 SW3       30.04S
NEW YORK       MOCLDY    68  54  60 N12       29.96R
NEWARK         MOCLDY    67  53  61 N9        29.96R
CHICAGO        CLEAR     56  48  74 S5        30.04F
HARTFORD       MOCLDY    62  58  86 NW3       29.92R
BOSTON         MOCLDY    63  52  67 NW12      29.93R
DALLAS         CLEAR     77  71  82 SE6       30.01S
PHILADELPHIA   CLEAR     64  51  62 N7        29.97S



USA.gov is the U.S. government's official web portal to all federal, state and local government web resources and services.